contact:dominique.lefevre@mio.osupytheas.fr, maurice.libes@osupytheas.fr, didier.mallarino@osupytheas.fr
Project:EMSO http://www.emso-fr.org/EMSO-France
Depth: 2436.0 m
Title:EMSO Ligure Ouest : Data MII capteur MICROCAT
DateTime_Computer,Latitude,Longitude,Temperature,Conductivity,Pressure,DateTime_Instrument
DateTime_Computer,Latitude,Longitude,degC,S m-1,dbar,DateTime_Instrument
2020-08-05T00:01:19Z,42.805,6.029,13.2979,4.59983,2470.11,2020-8-05T02:02:08Z
2020-08-05T00:04:23Z,42.805,6.029,13.2982,4.59983,2470.063,2020-8-05T02:05:11Z
2020-08-05T00:07:26Z,42.805,6.029,13.2983,4.59988,2470.1,2020-8-05T02:08:14Z
2020-08-05T00:10:29Z,42.805,6.029,13.2977,4.59984,2470.1,2020-8-05T02:11:17Z
2020-08-05T00:13:32Z,42.805,6.029,13.2974,4.59986,2470.11,2020-8-05T02:14:21Z
2020-08-05T00:16:36Z,42.805,6.029,13.2976,4.59986,2470.087,2020-8-05T02:17:24Z
2020-08-05T00:19:39Z,42.805,6.029,13.2974,4.59985,2470.1,2020-8-05T02:20:27Z
2020-08-05T00:22:42Z,42.805,6.029,13.2976,4.59985,2470.077,2020-8-05T02:23:30Z
2020-08-05T00:25:45Z,42.805,6.029,13.2979,4.59986,2470.087,2020-8-05T02:26:33Z
2020-08-05T00:28:48Z,42.805,6.029,13.2979,4.59985,2470.124,2020-8-05T02:29:37Z
2020-08-05T00:31:52Z,42.805,6.029,13.2978,4.59990,2470.063,2020-8-05T02:32:40Z
2020-08-05T00:34:55Z,42.805,6.029,13.2978,4.59988,2470.087,2020-8-05T02:35:43Z
2020-08-05T00:37:58Z,42.805,6.029,13.2982,4.59984,2470.04,2020-8-05T02:38:47Z
2020-08-05T00:41:01Z,42.805,6.029,13.2979,4.59983,2470.077,2020-8-05T02:41:50Z
2020-08-05T00:44:05Z,42.805,6.029,13.2977,4.59983,2470.087,2020-8-05T02:44:53Z
2020-08-05T00:47:08Z,42.805,6.029,13.2979,4.59983,2470.063,2020-8-05T02:47:56Z
2020-08-05T00:50:11Z,42.805,6.029,13.2982,4.59984,2470.049,2020-8-05T02:51:00Z
2020-08-05T00:53:14Z,42.805,6.029,13.2977,4.59986,2470.063,2020-8-05T02:54:03Z
2020-08-05T00:56:18Z,42.805,6.029,13.2982,4.59986,2470.04,2020-8-05T02:57:06Z
2020-08-05T00:59:21Z,42.805,6.029,13.2979,4.59991,2470.063,2020-8-05T03:00:09Z
2020-08-05T01:02:24Z,42.805,6.029,13.2980,4.59987,2470.063,2020-8-05T03:03:13Z
2020-08-05T01:05:28Z,42.805,6.029,13.2979,4.59985,2470.04,2020-8-05T03:06:16Z
2020-08-05T01:08:31Z,42.805,6.029,13.2979,4.59984,2470.077,2020-8-05T03:09:19Z
2020-08-05T01:11:34Z,42.805,6.029,13.2981,4.59990,2470.04,2020-8-05T03:12:22Z
2020-08-05T01:14:37Z,42.805,6.029,13.2981,4.59984,2470.04,2020-8-05T03:15:26Z
2020-08-05T01:17:41Z,42.805,6.029,13.2978,4.59986,2470.1,2020-8-05T03:18:29Z
2020-08-05T01:20:44Z,42.805,6.029,13.2979,4.59990,2470.049,2020-8-05T03:21:32Z
2020-08-05T01:23:47Z,42.805,6.029,13.2980,4.59986,2470.077,2020-8-05T03:24:36Z
2020-08-05T01:26:50Z,42.805,6.029,13.2977,4.59986,2470.053,2020-8-05T03:27:39Z
2020-08-05T01:29:54Z,42.805,6.029,13.2976,4.59985,2470.053,2020-8-05T03:30:42Z
2020-08-05T01:32:57Z,42.805,6.029,13.2983,4.59987,2470.04,2020-8-05T03:33:46Z
2020-08-05T01:36:00Z,42.805,6.029,13.2976,4.59992,2470.017,2020-8-05T03:36:49Z
2020-08-05T01:39:04Z,42.805,6.029,13.2981,4.59988,2470.017,2020-8-05T03:39:52Z
2020-08-05T01:42:07Z,42.805,6.029,13.2982,4.59986,2470.017,2020-8-05T03:42:55Z
2020-08-05T01:45:10Z,42.805,6.029,13.2979,4.59992,2470.04,2020-8-05T03:45:59Z
2020-08-05T01:48:13Z,42.805,6.029,13.2978,4.59993,2470.04,2020-8-05T03:49:02Z
2020-08-05T01:51:17Z,42.805,6.029,13.2976,4.59993,2470.04,2020-8-05T03:52:05Z
2020-08-05T01:54:20Z,42.805,6.029,13.2979,4.59988,2470.017,2020-8-05T03:55:08Z
2020-08-05T01:57:23Z,42.805,6.029,13.2979,4.60003,2470.017,2020-8-05T03:58:11Z
2020-08-05T02:00:26Z,42.805,6.029,13.2977,4.59984,2470.053,2020-8-05T04:01:15Z
2020-08-05T02:03:29Z,42.805,6.029,13.2975,4.59987,2470.017,2020-8-05T04:04:18Z
2020-08-05T02:06:33Z,42.805,6.029,13.2981,4.59986,2470.04,2020-8-05T04:07:21Z
2020-08-05T02:09:36Z,42.805,6.029,13.2979,4.59987,2470.04,2020-8-05T04:10:24Z
2020-08-05T02:12:39Z,42.805,6.029,13.2975,4.59991,2470.03,2020-8-05T04:13:27Z
2020-08-05T02:15:42Z,42.805,6.029,13.2982,4.59989,2470.017,2020-8-05T04:16:31Z
2020-08-05T02:18:45Z,42.805,6.029,13.2977,4.59988,2470.017,2020-8-05T04:19:34Z
2020-08-05T02:21:49Z,42.805,6.029,13.2977,4.59984,2469.993,2020-8-05T04:22:37Z
2020-08-05T02:24:52Z,42.805,6.029,13.2981,4.59994,2470.007,2020-8-05T04:25:40Z
2020-08-05T02:27:55Z,42.805,6.029,13.2978,4.59989,2470.087,2020-8-05T04:28:44Z
2020-08-05T02:30:58Z,42.805,6.029,13.2983,4.60009,2470.03,2020-8-05T04:31:47Z
2020-08-05T02:34:02Z,42.805,6.029,13.2980,4.59995,2470.017,2020-8-05T04:34:50Z
2020-08-05T02:37:05Z,42.805,6.029,13.2979,4.59996,2470.017,2020-8-05T04:37:53Z
2020-08-05T02:40:08Z,42.805,6.029,13.2989,4.59989,2470.017,2020-8-05T04:40:57Z
2020-08-05T02:43:11Z,42.805,6.029,13.2976,4.60002,2469.993,2020-8-05T04:44:00Z
2020-08-05T02:46:15Z,42.805,6.029,13.2979,4.59985,2469.993,2020-8-05T04:47:03Z
2020-08-05T02:49:18Z,42.805,6.029,13.2979,4.59986,2470.017,2020-8-05T04:50:06Z
2020-08-05T02:52:21Z,42.805,6.029,13.2977,4.59982,2470.007,2020-8-05T04:53:09Z
2020-08-05T02:55:24Z,42.805,6.029,13.2976,4.59983,2470.007,2020-8-05T04:56:13Z
2020-08-05T02:58:27Z,42.805,6.029,13.2979,4.59986,2470.017,2020-8-05T04:59:16Z
2020-08-05T03:01:31Z,42.805,6.029,13.2975,4.59986,2470.007,2020-8-05T05:02:19Z
2020-08-05T03:04:34Z,42.805,6.029,13.2978,4.59984,2469.993,2020-8-05T05:05:22Z
2020-08-05T03:07:37Z,42.805,6.029,13.2983,4.59989,2469.993,2020-8-05T05:08:26Z
2020-08-05T03:10:41Z,42.805,6.029,13.2981,4.59989,2470.04,2020-8-05T05:11:29Z
2020-08-05T03:13:44Z,42.805,6.029,13.2983,4.59988,2470.063,2020-8-05T05:14:32Z
2020-08-05T03:16:47Z,42.805,6.029,13.2979,4.59988,2470.04,2020-8-05T05:17:35Z
2020-08-05T03:19:50Z,42.805,6.029,13.2982,4.59994,2470.04,2020-8-05T05:20:39Z
2020-08-05T03:22:54Z,42.805,6.029,13.2980,4.59984,2470.077,2020-8-05T05:23:42Z
2020-08-05T03:25:57Z,42.805,6.029,13.2979,4.59989,2470.017,2020-8-05T05:26:45Z
2020-08-05T03:29:00Z,42.805,6.029,13.2983,4.59990,2470.03,2020-8-05T05:29:48Z
2020-08-05T03:32:03Z,42.805,6.029,13.2981,4.59985,2470.007,2020-8-05T05:32:52Z
2020-08-05T03:35:07Z,42.805,6.029,13.2978,4.59984,2469.993,2020-8-05T05:35:55Z
2020-08-05T03:38:10Z,42.805,6.029,13.2976,4.59987,2470.03,2020-8-05T05:38:58Z
2020-08-05T03:41:13Z,42.805,6.029,13.2983,4.59988,2470.03,2020-8-05T05:42:02Z
2020-08-05T03:44:17Z,42.805,6.029,13.2983,4.59991,2469.993,2020-8-05T05:45:05Z
2020-08-05T03:47:20Z,42.805,6.029,13.2979,4.59991,2469.993,2020-8-05T05:48:08Z
2020-08-05T03:50:23Z,42.805,6.029,13.2983,4.59993,2470.04,2020-8-05T05:51:12Z
2020-08-05T03:53:26Z,42.805,6.029,13.2978,4.59986,2470.017,2020-8-05T05:54:15Z
2020-08-05T03:56:30Z,42.805,6.029,13.2984,4.59986,2470.053,2020-8-05T05:57:18Z
2020-08-05T03:59:33Z,42.805,6.029,13.2978,4.59988,2469.993,2020-8-05T06:00:21Z
2020-08-05T04:02:36Z,42.805,6.029,13.2986,4.59993,2470.04,2020-8-05T06:03:25Z
2020-08-05T04:05:39Z,42.805,6.029,13.2982,4.59993,2470.017,2020-8-05T06:06:28Z
2020-08-05T04:08:43Z,42.805,6.029,13.2979,4.59991,2470.03,2020-8-05T06:09:31Z
2020-08-05T04:11:46Z,42.805,6.029,13.2980,4.59984,2469.993,2020-8-05T06:12:34Z
2020-08-05T04:14:49Z,42.805,6.029,13.2976,4.59983,2470.03,2020-8-05T06:15:38Z
2020-08-05T04:17:53Z,42.805,6.029,13.2981,4.59989,2470.03,2020-8-05T06:18:41Z
2020-08-05T04:20:56Z,42.805,6.029,13.2983,4.59988,2470.017,2020-8-05T06:21:44Z
2020-08-05T04:23:59Z,42.805,6.029,13.2983,4.59996,2469.993,2020-8-05T06:24:48Z
2020-08-05T04:27:02Z,42.805,6.029,13.2985,4.59994,2469.993,2020-8-05T06:27:51Z
2020-08-05T04:30:06Z,42.805,6.029,13.2980,4.59983,2470.03,2020-8-05T06:30:54Z
2020-08-05T04:33:09Z,42.805,6.029,13.2977,4.60000,2470.017,2020-8-05T06:33:57Z
2020-08-05T04:36:12Z,42.805,6.029,13.2983,4.59984,2469.97,2020-8-05T06:37:00Z
2020-08-05T04:39:15Z,42.805,6.029,13.2979,4.59990,2470.04,2020-8-05T06:40:04Z
2020-08-05T04:42:19Z,42.805,6.029,13.2984,4.59989,2470.04,2020-8-05T06:43:07Z
2020-08-05T04:45:22Z,42.805,6.029,13.2978,4.59986,2470.017,2020-8-05T06:46:10Z
2020-08-05T04:48:25Z,42.805,6.029,13.2977,4.59986,2470.017,2020-8-05T06:49:14Z
2020-08-05T04:51:28Z,42.805,6.029,13.2982,4.59991,2470.04,2020-8-05T06:52:17Z
2020-08-05T04:54:32Z,42.805,6.029,13.2982,4.59984,2470.017,2020-8-05T06:55:20Z
2020-08-05T04:57:35Z,42.805,6.029,13.2976,4.59985,2470.03,2020-8-05T06:58:23Z
2020-08-05T05:00:38Z,42.805,6.029,13.2974,4.59981,2470.053,2020-8-05T07:01:27Z
2020-08-05T05:03:41Z,42.805,6.029,13.2981,4.59984,2470.053,2020-8-05T07:04:30Z
2020-08-05T05:06:45Z,42.805,6.029,13.2974,4.59982,2470.063,2020-8-05T07:07:33Z
2020-08-05T05:09:48Z,42.805,6.029,13.2978,4.59984,2470.003,2020-8-05T07:10:36Z
2020-08-05T05:12:51Z,42.805,6.029,13.2980,4.59985,2470.053,2020-8-05T07:13:39Z
2020-08-05T05:15:54Z,42.805,6.029,13.2983,4.59986,2470.04,2020-8-05T07:16:43Z
2020-08-05T05:18:57Z,42.805,6.029,13.2983,4.59985,2470.04,2020-8-05T07:19:46Z
2020-08-05T05:22:01Z,42.805,6.029,13.2982,4.59997,2470.077,2020-8-05T07:22:49Z
2020-08-05T05:25:04Z,42.805,6.029,13.2978,4.59988,2470.1,2020-8-05T07:25:52Z
2020-08-05T05:28:07Z,42.805,6.029,13.2980,4.59986,2470.063,2020-8-05T07:28:56Z
2020-08-05T05:31:11Z,42.805,6.029,13.2979,4.59985,2470.087,2020-8-05T07:31:59Z
2020-08-05T05:34:14Z,42.805,6.029,13.2979,4.59999,2470.063,2020-8-05T07:35:02Z
2020-08-05T05:37:17Z,42.805,6.029,13.2989,4.60001,2470.063,2020-8-05T07:38:05Z
2020-08-05T05:40:20Z,42.805,6.029,13.2979,4.59994,2470.063,2020-8-05T07:41:09Z
2020-08-05T05:43:23Z,42.805,6.029,13.2980,4.59986,2470.087,2020-8-05T07:44:12Z
2020-08-05T05:46:27Z,42.805,6.029,13.2982,4.59998,2470.063,2020-8-05T07:47:15Z
2020-08-05T05:49:30Z,42.805,6.029,13.2979,4.59984,2470.087,2020-8-05T07:50:18Z
2020-08-05T05:52:33Z,42.805,6.029,13.2985,4.59989,2470.087,2020-8-05T07:53:22Z
2020-08-05T05:55:37Z,42.805,6.029,13.2980,4.59989,2470.063,2020-8-05T07:56:25Z
2020-08-05T05:58:40Z,42.805,6.029,13.2979,4.59986,2470.077,2020-8-05T07:59:28Z
2020-08-05T06:01:43Z,42.805,6.029,13.2981,4.59986,2470.11,2020-8-05T08:02:31Z
2020-08-05T06:04:46Z,42.805,6.029,13.2979,4.59988,2470.1,2020-8-05T08:05:35Z
2020-08-05T06:07:50Z,42.805,6.029,13.2982,4.59996,2470.1,2020-8-05T08:08:38Z
2020-08-05T06:10:53Z,42.805,6.029,13.2981,4.59988,2470.1,2020-8-05T08:11:41Z
2020-08-05T06:13:56Z,42.805,6.029,13.2986,4.59993,2470.087,2020-8-05T08:14:45Z
2020-08-05T06:16:59Z,42.805,6.029,13.2981,4.59987,2470.11,2020-8-05T08:17:48Z
2020-08-05T06:20:03Z,42.805,6.029,13.2980,4.59988,2470.087,2020-8-05T08:20:51Z
2020-08-05T06:23:06Z,42.805,6.029,13.2979,4.59988,2470.11,2020-8-05T08:23:55Z
2020-08-05T06:26:09Z,42.805,6.029,13.2981,4.59987,2470.087,2020-8-05T08:26:58Z
2020-08-05T06:29:13Z,42.805,6.029,13.2977,4.59984,2470.087,2020-8-05T08:30:01Z
2020-08-05T06:32:16Z,42.805,6.029,13.2979,4.59981,2470.087,2020-8-05T08:33:04Z
2020-08-05T06:35:19Z,42.805,6.029,13.2979,4.59993,2470.1,2020-8-05T08:36:08Z
2020-08-05T06:38:23Z,42.805,6.029,13.2981,4.59985,2470.124,2020-8-05T08:39:11Z
2020-08-05T06:41:26Z,42.805,6.029,13.2974,4.59987,2470.11,2020-8-05T08:42:14Z
2020-08-05T06:44:29Z,42.805,6.029,13.2976,4.59986,2470.133,2020-8-05T08:45:17Z
2020-08-05T06:47:32Z,42.805,6.029,13.2974,4.59983,2470.124,2020-8-05T08:48:21Z
2020-08-05T06:50:35Z,42.805,6.029,13.2976,4.59996,2470.147,2020-8-05T08:51:24Z
2020-08-05T06:53:39Z,42.805,6.029,13.2977,4.59983,2470.133,2020-8-05T08:54:27Z
2020-08-05T06:56:42Z,42.805,6.029,13.2978,4.59983,2470.11,2020-8-05T08:57:30Z
2020-08-05T06:59:45Z,42.805,6.029,13.2973,4.59983,2470.11,2020-8-05T09:00:34Z
2020-08-05T07:02:48Z,42.805,6.029,13.2968,4.59982,2470.133,2020-8-05T09:03:37Z
2020-08-05T07:05:52Z,42.805,6.029,13.2976,4.59983,2470.119,2020-8-05T09:06:40Z
2020-08-05T07:08:55Z,42.805,6.029,13.2979,4.59983,2470.11,2020-8-05T09:09:43Z
2020-08-05T07:11:58Z,42.805,6.029,13.2979,4.59983,2470.147,2020-8-05T09:12:47Z
2020-08-05T07:15:01Z,42.805,6.029,13.2980,4.59996,2470.133,2020-8-05T09:15:50Z
2020-08-05T07:18:05Z,42.805,6.029,13.2982,4.59991,2470.147,2020-8-05T09:18:53Z
2020-08-05T07:21:08Z,42.805,6.029,13.2980,4.59984,2470.133,2020-8-05T09:21:56Z
2020-08-05T07:24:11Z,42.805,6.029,13.2976,4.59986,2470.124,2020-8-05T09:25:00Z
2020-08-05T07:27:14Z,42.805,6.029,13.2979,4.59986,2470.147,2020-8-05T09:28:03Z
2020-08-05T07:30:18Z,42.805,6.029,13.2977,4.59983,2470.133,2020-8-05T09:31:06Z
2020-08-05T07:33:21Z,42.805,6.029,13.2975,4.59982,2470.156,2020-8-05T09:34:09Z
2020-08-05T07:36:24Z,42.805,6.029,13.2976,4.59985,2470.11,2020-8-05T09:37:12Z
2020-08-05T07:39:27Z,42.805,6.029,13.2977,4.59983,2470.133,2020-8-05T09:40:16Z
2020-08-05T07:42:30Z,42.805,6.029,13.2978,4.59983,2470.124,2020-8-05T09:43:19Z
2020-08-05T07:45:34Z,42.805,6.029,13.2974,4.59983,2470.124,2020-8-05T09:46:22Z
2020-08-05T07:48:37Z,42.805,6.029,13.2980,4.59981,2470.156,2020-8-05T09:49:25Z
2020-08-05T07:51:40Z,42.805,6.029,13.2976,4.59985,2470.133,2020-8-05T09:52:28Z
2020-08-05T07:54:43Z,42.805,6.029,13.2978,4.59983,2470.11,2020-8-05T09:55:32Z
2020-08-05T07:57:47Z,42.805,6.029,13.2977,4.59986,2470.124,2020-8-05T09:58:35Z
2020-08-05T08:00:50Z,42.805,6.029,13.2977,4.59983,2470.087,2020-8-05T10:01:38Z
2020-08-05T08:03:53Z,42.805,6.029,13.2984,4.59984,2470.124,2020-8-05T10:04:42Z
2020-08-05T08:06:56Z,42.805,6.029,13.2976,4.59986,2470.11,2020-8-05T10:07:45Z
2020-08-05T08:10:00Z,42.805,6.029,13.2983,4.59994,2470.096,2020-8-05T10:10:48Z
2020-08-05T08:13:03Z,42.805,6.029,13.2978,4.59985,2470.147,2020-8-05T10:13:51Z
2020-08-05T08:16:06Z,42.805,6.029,13.2979,4.59993,2470.11,2020-8-05T10:16:54Z
2020-08-05T08:19:09Z,42.805,6.029,13.2980,4.59986,2470.11,2020-8-05T10:19:58Z
2020-08-05T08:22:12Z,42.805,6.029,13.2981,4.59986,2470.087,2020-8-05T10:23:01Z
2020-08-05T08:25:16Z,42.805,6.029,13.2976,4.59986,2470.087,2020-8-05T10:26:04Z
2020-08-05T08:28:19Z,42.805,6.029,13.2974,4.59981,2470.133,2020-8-05T10:29:07Z
2020-08-05T08:31:22Z,42.805,6.029,13.2976,4.59996,2470.147,2020-8-05T10:32:11Z
2020-08-05T08:34:26Z,42.805,6.029,13.2977,4.59983,2470.124,2020-8-05T10:35:14Z
2020-08-05T08:37:29Z,42.805,6.029,13.2975,4.59981,2470.133,2020-8-05T10:38:17Z
2020-08-05T08:40:32Z,42.805,6.029,13.2980,4.59991,2470.11,2020-8-05T10:41:21Z
2020-08-05T08:43:35Z,42.805,6.029,13.2978,4.59986,2470.11,2020-8-05T10:44:24Z
2020-08-05T08:46:39Z,42.805,6.029,13.2979,4.59989,2470.11,2020-8-05T10:47:27Z
2020-08-05T08:49:42Z,42.805,6.029,13.2977,4.59982,2470.11,2020-8-05T10:50:30Z
2020-08-05T08:52:45Z,42.805,6.029,13.2974,4.59984,2470.11,2020-8-05T10:53:34Z
2020-08-05T08:55:48Z,42.805,6.029,13.2977,4.59981,2470.147,2020-8-05T10:56:37Z
2020-08-05T08:58:52Z,42.805,6.029,13.2979,4.59987,2470.11,2020-8-05T10:59:40Z
2020-08-05T09:01:55Z,42.805,6.029,13.2980,4.59989,2470.147,2020-8-05T11:02:43Z
2020-08-05T09:04:58Z,42.805,6.029,13.2979,4.59984,2470.124,2020-8-05T11:05:46Z
2020-08-05T09:08:01Z,42.805,6.029,13.2983,4.59990,2470.124,2020-8-05T11:08:50Z
2020-08-05T09:11:05Z,42.805,6.029,13.2979,4.59981,2470.087,2020-8-05T11:11:53Z
2020-08-05T09:14:08Z,42.805,6.029,13.2974,4.59982,2470.11,2020-8-05T11:14:56Z
2020-08-05T09:17:11Z,42.805,6.029,13.2979,4.59982,2470.087,2020-8-05T11:18:00Z
2020-08-05T09:20:14Z,42.805,6.029,13.2981,4.59986,2470.133,2020-8-05T11:21:03Z
2020-08-05T09:23:17Z,42.805,6.029,13.2975,4.59983,2470.087,2020-8-05T11:24:06Z
2020-08-05T09:26:21Z,42.805,6.029,13.2980,4.59986,2470.1,2020-8-05T11:27:09Z
2020-08-05T09:29:24Z,42.805,6.029,13.2975,4.59989,2470.087,2020-8-05T11:30:12Z
2020-08-05T09:32:27Z,42.805,6.029,13.2979,4.59982,2470.063,2020-8-05T11:33:16Z
2020-08-05T09:35:30Z,42.805,6.029,13.2978,4.59984,2470.124,2020-8-05T11:36:19Z
2020-08-05T09:38:34Z,42.805,6.029,13.2988,4.59996,2470.11,2020-8-05T11:39:22Z
2020-08-05T09:41:37Z,42.805,6.029,13.2982,4.59994,2470.087,2020-8-05T11:42:25Z
2020-08-05T09:44:40Z,42.805,6.029,13.2979,4.59987,2470.11,2020-8-05T11:45:29Z
2020-08-05T09:47:43Z,42.805,6.029,13.2981,4.59994,2470.087,2020-8-05T11:48:32Z
2020-08-05T09:50:47Z,42.805,6.029,13.2976,4.59983,2470.077,2020-8-05T11:51:35Z
2020-08-05T09:53:50Z,42.805,6.029,13.2974,4.59983,2470.087,2020-8-05T11:54:38Z
2020-08-05T09:56:53Z,42.805,6.029,13.2979,4.59986,2470.11,2020-8-05T11:57:41Z
2020-08-05T09:59:56Z,42.805,6.029,13.2980,4.59991,2470.11,2020-8-05T12:00:45Z
2020-08-05T10:02:59Z,42.805,6.029,13.2980,4.59994,2470.087,2020-8-05T12:03:48Z
2020-08-05T10:06:03Z,42.805,6.029,13.2975,4.59986,2470.124,2020-8-05T12:06:51Z
2020-08-05T10:09:06Z,42.805,6.029,13.2983,4.59982,2470.1,2020-8-05T12:09:54Z
2020-08-05T10:12:09Z,42.805,6.029,13.2983,4.59983,2470.096,2020-8-05T12:12:58Z
2020-08-05T10:15:13Z,42.805,6.029,13.2976,4.59981,2470.087,2020-8-05T12:16:01Z
2020-08-05T10:18:16Z,42.805,6.029,13.2979,4.59982,2470.124,2020-8-05T12:19:04Z
2020-08-05T10:21:19Z,42.805,6.029,13.2979,4.59985,2470.087,2020-8-05T12:22:08Z
2020-08-05T10:24:22Z,42.805,6.029,13.2978,4.59984,2470.063,2020-8-05T12:25:11Z
2020-08-05T10:27:26Z,42.805,6.029,13.2980,4.59983,2470.049,2020-8-05T12:28:14Z
2020-08-05T10:30:29Z,42.805,6.029,13.2978,4.59984,2470.11,2020-8-05T12:31:17Z
2020-08-05T10:33:32Z,42.805,6.029,13.2983,4.59985,2470.053,2020-8-05T12:34:20Z
2020-08-05T10:36:35Z,42.805,6.029,13.2981,4.59985,2470.063,2020-8-05T12:37:24Z
2020-08-05T10:39:39Z,42.805,6.029,13.2974,4.59982,2470.063,2020-8-05T12:40:27Z
2020-08-05T10:42:42Z,42.805,6.029,13.2976,4.59986,2470.087,2020-8-05T12:43:30Z
2020-08-05T10:45:45Z,42.805,6.029,13.2982,4.59984,2470.063,2020-8-05T12:46:33Z
2020-08-05T10:48:49Z,42.805,6.029,13.2977,4.59982,2470.077,2020-8-05T12:49:37Z
2020-08-05T10:51:52Z,42.805,6.029,13.2976,4.59986,2470.087,2020-8-05T12:52:40Z
2020-08-05T10:54:55Z,42.805,6.029,13.2979,4.59981,2470.087,2020-8-05T12:55:43Z
2020-08-05T10:57:58Z,42.805,6.029,13.2979,4.59983,2470.077,2020-8-05T12:58:47Z
2020-08-05T11:01:01Z,42.805,6.029,13.2979,4.59999,2470.04,2020-8-05T13:01:50Z
2020-08-05T11:04:05Z,42.805,6.029,13.2980,4.59986,2470.063,2020-8-05T13:04:53Z
2020-08-05T11:07:08Z,42.805,6.029,13.2976,4.59985,2470.077,2020-8-05T13:07:56Z
2020-08-05T11:10:11Z,42.805,6.029,13.2986,4.59991,2470.053,2020-8-05T13:11:00Z
2020-08-05T11:13:14Z,42.805,6.029,13.2982,4.59989,2470.03,2020-8-05T13:14:03Z
2020-08-05T11:16:18Z,42.805,6.029,13.2977,4.59986,2470.053,2020-8-05T13:17:06Z
2020-08-05T11:19:21Z,42.805,6.029,13.2982,4.59983,2470.053,2020-8-05T13:20:09Z
2020-08-05T11:22:24Z,42.805,6.029,13.2980,4.59982,2470.063,2020-8-05T13:23:12Z
2020-08-05T11:25:27Z,42.805,6.029,13.2978,4.59991,2470.017,2020-8-05T13:26:16Z
2020-08-05T11:28:31Z,42.805,6.029,13.2974,4.59986,2470.04,2020-8-05T13:29:19Z
2020-08-05T11:31:34Z,42.805,6.029,13.2978,4.59988,2470.053,2020-8-05T13:32:22Z
2020-08-05T11:34:37Z,42.805,6.029,13.2978,4.59986,2470.04,2020-8-05T13:35:25Z
2020-08-05T11:37:40Z,42.805,6.029,13.2979,4.59982,2470.017,2020-8-05T13:38:29Z
2020-08-05T11:40:44Z,42.805,6.029,13.2976,4.59985,2469.993,2020-8-05T13:41:32Z
2020-08-05T11:43:47Z,42.805,6.029,13.2975,4.59986,2470.017,2020-8-05T13:44:35Z
2020-08-05T11:46:50Z,42.805,6.029,13.2976,4.59984,2470.03,2020-8-05T13:47:38Z
2020-08-05T11:49:53Z,42.805,6.029,13.2979,4.59985,2470.017,2020-8-05T13:50:42Z
2020-08-05T11:52:57Z,42.805,6.029,13.2980,4.59984,2470.017,2020-8-05T13:53:45Z
2020-08-05T11:56:00Z,42.805,6.029,13.2982,4.59982,2470.017,2020-8-05T13:56:48Z
2020-08-05T11:59:03Z,42.805,6.029,13.2976,4.59983,2469.993,2020-8-05T13:59:52Z
2020-08-05T12:02:06Z,42.805,6.029,13.2982,4.59991,2469.979,2020-8-05T14:02:55Z
2020-08-05T12:05:10Z,42.805,6.029,13.2972,4.59983,2470.053,2020-8-05T14:05:58Z
2020-08-05T12:08:13Z,42.805,6.029,13.2977,4.59981,2470.017,2020-8-05T14:09:01Z
2020-08-05T12:11:16Z,42.805,6.029,13.2982,4.59986,2470.017,2020-8-05T14:12:05Z
2020-08-05T12:14:20Z,42.805,6.029,13.2977,4.59994,2469.993,2020-8-05T14:15:08Z
2020-08-05T12:17:23Z,42.805,6.029,13.2978,4.59984,2470.03,2020-8-05T14:18:11Z
2020-08-05T12:20:26Z,42.805,6.029,13.2983,4.59991,2470.03,2020-8-05T14:21:14Z
2020-08-05T12:23:29Z,42.805,6.029,13.2970,4.59980,2469.979,2020-8-05T14:24:18Z
2020-08-05T12:26:32Z,42.805,6.029,13.2978,4.59982,2470.017,2020-8-05T14:27:21Z
2020-08-05T12:29:36Z,42.805,6.029,13.2980,4.59999,2470.03,2020-8-05T14:30:24Z
2020-08-05T12:32:39Z,42.805,6.029,13.2983,4.59986,2470.017,2020-8-05T14:33:27Z
2020-08-05T12:35:42Z,42.805,6.029,13.2982,4.59983,2470.03,2020-8-05T14:36:31Z
2020-08-05T12:38:45Z,42.805,6.029,13.2976,4.59981,2469.97,2020-8-05T14:39:34Z
2020-08-05T12:41:49Z,42.805,6.029,13.2984,4.59988,2469.993,2020-8-05T14:42:37Z
2020-08-05T12:44:52Z,42.805,6.029,13.2977,4.59988,2469.993,2020-8-05T14:45:40Z
2020-08-05T12:47:55Z,42.805,6.029,13.2982,4.59982,2470.03,2020-8-05T14:48:44Z
2020-08-05T12:50:59Z,42.805,6.029,13.2978,4.59983,2469.97,2020-8-05T14:51:47Z
2020-08-05T12:54:02Z,42.805,6.029,13.2977,4.59984,2469.979,2020-8-05T14:54:50Z
2020-08-05T12:57:05Z,42.805,6.029,13.2979,4.59994,2469.984,2020-8-05T14:57:53Z
2020-08-05T13:00:08Z,42.805,6.029,13.2975,4.59992,2470.007,2020-8-05T15:00:57Z
2020-08-05T13:03:11Z,42.805,6.029,13.2976,4.59982,2469.984,2020-8-05T15:04:00Z
2020-08-05T13:06:15Z,42.805,6.029,13.2979,4.59985,2469.984,2020-8-05T15:07:03Z
2020-08-05T13:09:18Z,42.805,6.029,13.2977,4.59978,2469.984,2020-8-05T15:10:06Z
2020-08-05T13:12:21Z,42.805,6.029,13.2974,4.59980,2469.993,2020-8-05T15:13:09Z
2020-08-05T13:15:24Z,42.805,6.029,13.2976,4.59982,2469.97,2020-8-05T15:16:13Z
2020-08-05T13:18:28Z,42.805,6.029,13.2977,4.59982,2469.97,2020-8-05T15:19:16Z
2020-08-05T13:21:31Z,42.805,6.029,13.2975,4.59982,2470.017,2020-8-05T15:22:19Z
2020-08-05T13:24:34Z,42.805,6.029,13.2981,4.59986,2469.97,2020-8-05T15:25:23Z
2020-08-05T13:27:37Z,42.805,6.029,13.2976,4.59981,2470.007,2020-8-05T15:28:26Z
2020-08-05T13:30:41Z,42.805,6.029,13.2981,4.59992,2469.97,2020-8-05T15:31:29Z
2020-08-05T13:33:44Z,42.805,6.029,13.2976,4.59985,2469.984,2020-8-05T15:34:32Z
2020-08-05T13:36:47Z,42.805,6.029,13.2974,4.59982,2470.007,2020-8-05T15:37:36Z
2020-08-05T13:39:50Z,42.805,6.029,13.2978,4.59986,2470.007,2020-8-05T15:40:39Z
2020-08-05T13:42:54Z,42.805,6.029,13.2976,4.59992,2470.017,2020-8-05T15:43:42Z
2020-08-05T13:45:57Z,42.805,6.029,13.2981,4.59982,2469.984,2020-8-05T15:46:45Z
2020-08-05T13:49:00Z,42.805,6.029,13.2976,4.59981,2469.993,2020-8-05T15:49:49Z
2020-08-05T13:52:03Z,42.805,6.029,13.2978,4.59982,2469.993,2020-8-05T15:52:52Z
2020-08-05T13:55:07Z,42.805,6.029,13.2982,4.59990,2469.984,2020-8-05T15:55:55Z
2020-08-05T13:58:10Z,42.805,6.029,13.2979,4.59985,2469.97,2020-8-05T15:58:58Z
2020-08-05T14:01:13Z,42.805,6.029,13.2976,4.59983,2469.97,2020-8-05T16:02:01Z
2020-08-05T14:04:16Z,42.805,6.029,13.2981,4.59994,2469.96,2020-8-05T16:05:05Z
2020-08-05T14:07:19Z,42.805,6.029,13.2980,4.59994,2469.97,2020-8-05T16:08:08Z
2020-08-05T14:10:23Z,42.805,6.029,13.2976,4.59995,2469.97,2020-8-05T16:11:11Z
2020-08-05T14:13:26Z,42.805,6.029,13.2983,4.59996,2469.97,2020-8-05T16:14:15Z
2020-08-05T14:16:29Z,42.805,6.029,13.2976,4.59986,2469.947,2020-8-05T16:17:18Z
2020-08-05T14:19:33Z,42.805,6.029,13.2976,4.59986,2469.984,2020-8-05T16:20:21Z
2020-08-05T14:22:36Z,42.805,6.029,13.2975,4.59982,2469.97,2020-8-05T16:23:24Z
2020-08-05T14:25:39Z,42.805,6.029,13.2978,4.59989,2469.96,2020-8-05T16:26:28Z
2020-08-05T14:28:42Z,42.805,6.029,13.2977,4.59991,2469.97,2020-8-05T16:29:31Z
2020-08-05T14:31:46Z,42.805,6.029,13.2977,4.59991,2469.947,2020-8-05T16:32:34Z
2020-08-05T14:34:49Z,42.805,6.029,13.2976,4.59987,2469.96,2020-8-05T16:35:37Z
2020-08-05T14:37:52Z,42.805,6.029,13.2979,4.59999,2469.984,2020-8-05T16:38:41Z
2020-08-05T14:40:55Z,42.805,6.029,13.2979,4.59999,2469.97,2020-8-05T16:41:44Z
2020-08-05T14:43:59Z,42.805,6.029,13.2976,4.59981,2469.97,2020-8-05T16:44:47Z
2020-08-05T14:47:02Z,42.805,6.029,13.2978,4.59995,2469.97,2020-8-05T16:47:50Z
2020-08-05T14:50:05Z,42.805,6.029,13.2975,4.59991,2469.947,2020-8-05T16:50:53Z
2020-08-05T14:53:08Z,42.805,6.029,13.2976,4.59986,2469.993,2020-8-05T16:53:57Z
2020-08-05T14:56:11Z,42.805,6.029,13.2978,4.59994,2469.97,2020-8-05T16:57:00Z
2020-08-05T14:59:15Z,42.805,6.029,13.2978,4.59989,2469.984,2020-8-05T17:00:03Z
2020-08-05T15:02:18Z,42.805,6.029,13.2974,4.59979,2469.97,2020-8-05T17:03:06Z
2020-08-05T15:05:21Z,42.805,6.029,13.2983,4.59995,2469.947,2020-8-05T17:06:10Z
2020-08-05T15:08:24Z,42.805,6.029,13.2988,4.59997,2469.97,2020-8-05T17:09:13Z
2020-08-05T15:11:28Z,42.805,6.029,13.2975,4.59984,2469.97,2020-8-05T17:12:16Z
2020-08-05T15:14:31Z,42.805,6.029,13.2979,4.59990,2469.97,2020-8-05T17:15:19Z